Find Starlink 3391

NORAD ID: 51117 Int'l Des: 2022-005 Owner: SPXS Country: US Constellation: starlink operational
LEOCIRCULAR

Live Position

Loading 3D Globe...

About Starlink 3391

Description loading...

Upcoming Passes

Passes for default location (London). Set your location on the main map for personalized predictions.

Altitude History

Loading altitude history...

Two-Line Element Set

1 51117U 22005P 26125.15765310 .00001240 00000-0 95992-4 0 9993
2 51117 53.2187 35.5145 0001485 93.0115 267.1047 15.08838138237401
Epoch: May 5, 2026 • Age: 42 hours

Current Status

Altitude 540.6 km
Velocity 7.60 km/s
Sub-Earth Point 29.27°N, 7.92°W
Launch Date Jan 19, 2022
Age 4.2 years
Type internet

Technical Details

Classification Payload
Mass 297.00 kg
Dry Mass 275.00 kg
Total Mass 297.00 kg
Length 0.20 m
Diameter 2.80 m
Span 9.00 m
Shape Box + pan
Manufacturer SPXS
Bus Type Starlink
Phase Status In Orbit
Owner/State SPXS/US

Most Searched